Previsão horária em Abadeh

Hoje, 12 Abril, Segunda-feira

Tempo Temperatura Precipitação Vento Pressão Humidade
00:00 +13°C° 0 mm 3 m/s 593 mmHg 45%
01:00 +13°C° 0 mm 3 m/s 592 mmHg 44%
02:00 +12°C° 0 mm 3 m/s 592 mmHg 45%
03:00 +13°C° 0 mm 2 m/s 591 mmHg 46%
04:00 +12°C° 0 mm 1 m/s 591 mmHg 46%
05:00 +12°C° 0 mm 2 m/s 591 mmHg 44%
06:00 +13°C° 0 mm 2 m/s 592 mmHg 41%
07:00 +13°C° 0 mm 2 m/s 592 mmHg 39%
08:00 +14°C° 0 mm 3 m/s 593 mmHg 32%
09:00 +16°C° 0 mm 5 m/s 594 mmHg 26%
10:00 +18°C° 0 mm 7 m/s 594 mmHg 19%
11:00 +20°C° 0 mm 7 m/s 594 mmHg 18%
12:00 +21°C° 0 mm 7 m/s 594 mmHg 17%
13:00 +22°C° 0 mm 7 m/s 594 mmHg 15%
14:00 +22°C° 0 mm 8 m/s 594 mmHg 15%
15:00 +22°C° 0 mm 8 m/s 594 mmHg 15%
16:00 +22°C° 0 mm 9 m/s 593 mmHg 15%
17:00 +18°C° 0.1 mm 7 m/s 593 mmHg 25%
18:00 +17°C° 0.1 mm 5 m/s 593 mmHg 31%
19:00 +16°C° 0.1 mm 3 m/s 593 mmHg 37%
20:00 +16°C° 0 mm 3 m/s 593 mmHg 34%
21:00 +15°C° 0 mm 4 m/s 593 mmHg 32%
22:00 +15°C° 0 mm 4 m/s 593 mmHg 29%
23:00 +15°C° 0 mm 4 m/s 593 mmHg 30%

Amanhã, 13 Abril, Terça-feira

Tempo Temperatura Precipitação Vento Pressão Humidade
00:00 +14°C° 0 mm 3 m/s 593 mmHg 30%
01:00 +14°C° 0 mm 3 m/s 592 mmHg 31%
02:00 +14°C° 0 mm 2 m/s 592 mmHg 32%
03:00 +14°C° 0 mm 2 m/s 592 mmHg 34%
04:00 +13°C° 0 mm 2 m/s 591 mmHg 35%
05:00 +13°C° 0 mm 2 m/s 592 mmHg 35%
06:00 +14°C° 0 mm 2 m/s 592 mmHg 35%
07:00 +14°C° 0 mm 1 m/s 592 mmHg 35%
08:00 +14°C° 0 mm 4 m/s 593 mmHg 32%
09:00 +16°C° 0 mm 7 m/s 594 mmHg 30%
10:00 +17°C° 0 mm 9 m/s 595 mmHg 27%
11:00 +18°C° 0 mm 9 m/s 594 mmHg 26%
12:00 +20°C° 0 mm 8 m/s 594 mmHg 25%
13:00 +21°C° 0 mm 7 m/s 594 mmHg 25%
14:00 +18°C° 0.3 mm 7 m/s 593 mmHg 32%
15:00 +16°C° 0.3 mm 7 m/s 593 mmHg 40%
16:00 +15°C° 0.3 mm 7 m/s 592 mmHg 48%
17:00 +14°C° 0.1 mm 7 m/s 592 mmHg 49%
18:00 +14°C° 0.1 mm 6 m/s 592 mmHg 49%
19:00 +14°C° 0.1 mm 6 m/s 592 mmHg 50%
20:00 +13°C° 0.2 mm 6 m/s 592 mmHg 52%
21:00 +12°C° 0.2 mm 5 m/s 592 mmHg 54%
22:00 +12°C° 0.2 mm 4 m/s 592 mmHg 56%
23:00 +11°C° 0 mm 4 m/s 591 mmHg 58%

Depois de amanhã, 14 Abril, Quarta-feira

Tempo Temperatura Precipitação Vento Pressão Humidade
00:00 +10°C° 0 mm 5 m/s 590 mmHg 60%
01:00 +10°C° 0 mm 5 m/s 590 mmHg 63%
02:00 +10°C° 0 mm 5 m/s 590 mmHg 64%
03:00 +10°C° 0 mm 5 m/s 589 mmHg 65%
04:00 +9°C° 0 mm 5 m/s 589 mmHg 66%
05:00 +10°C° 0 mm 4 m/s 589 mmHg 68%
06:00 +10°C° 0 mm 3 m/s 590 mmHg 70%
07:00 +10°C° 0 mm 2 m/s 590 mmHg 72%
08:00 +13°C° 0.1 mm 2 m/s 591 mmHg 62%
09:00 +13°C° 0.1 mm 3 m/s 591 mmHg 53%
10:00 +16°C° 0.1 mm 3 m/s 592 mmHg 43%
11:00 +18°C° 0 mm 4 m/s 592 mmHg 36%
12:00 +19°C° 0 mm 5 m/s 592 mmHg 29%
13:00 +21°C° 0 mm 6 m/s 592 mmHg 23%
14:00 +21°C° 0 mm 6 m/s 592 mmHg 21%
15:00 +21°C° 0 mm 7 m/s 591 mmHg 19%
16:00 +22°C° 0 mm 7 m/s 591 mmHg 17%
17:00 +20°C° 0 mm 7 m/s 591 mmHg 22%
18:00 +18°C° 0 mm 7 m/s 591 mmHg 28%
19:00 +16°C° 0 mm 7 m/s 590 mmHg 33%
20:00 +16°C° 0 mm 6 m/s 590 mmHg 35%
21:00 +15°C° 0 mm 5 m/s 591 mmHg 36%
22:00 +15°C° 0 mm 4 m/s 591 mmHg 38%
23:00 +14°C° 0 mm 4 m/s 590 mmHg 40%

15 Abril, Quinta-feira

Tempo Temperatura Precipitação Vento Pressão Humidade
00:00 +13°C° 0 mm 3 m/s 590 mmHg 42%
01:00 +13°C° 0 mm 3 m/s 590 mmHg 44%
02:00 +12°C° 0 mm 3 m/s 590 mmHg 46%
03:00 +13°C° 0 mm 2 m/s 589 mmHg 49%
04:00 +12°C° 0 mm 2 m/s 589 mmHg 51%
05:00 +12°C° 0 mm 2 m/s 589 mmHg 50%
06:00 +12°C° 0 mm 2 m/s 590 mmHg 50%
07:00 +12°C° 0 mm 1 m/s 590 mmHg 50%
08:00 +14°C° 0 mm 1 m/s 591 mmHg 40%
09:00 +15°C° 0 mm 1 m/s 592 mmHg 30%
10:00 +18°C° 0 mm 1 m/s 592 mmHg 21%
11:00 +18°C° 0 mm 2 m/s 592 mmHg 17%
12:00 +19°C° 0 mm 2 m/s 592 mmHg 13%
13:00 +21°C° 0 mm 2 m/s 593 mmHg 9%
14:00 +21°C° 0 mm 3 m/s 592 mmHg 9%
15:00 +22°C° 0 mm 3 m/s 592 mmHg 8%
16:00 +22°C° 0 mm 4 m/s 592 mmHg 8%
17:00 +21°C° 0 mm 3 m/s 591 mmHg 9%
18:00 +21°C° 0 mm 3 m/s 591 mmHg 10%
19:00 +20°C° 0 mm 3 m/s 591 mmHg 11%
20:00 +19°C° 0 mm 3 m/s 591 mmHg 14%
21:00 +18°C° 0 mm 2 m/s 591 mmHg 17%
22:00 +17°C° 0 mm 2 m/s 591 mmHg 20%
23:00 +16°C° 0 mm 2 m/s 590 mmHg 21%

16 Abril, Sexta-feira

Tempo Temperatura Precipitação Vento Pressão Humidade
00:00 +15°C° 0 mm 2 m/s 590 mmHg 22%
01:00 +15°C° 0 mm 2 m/s 589 mmHg 23%
02:00 +14°C° 0 mm 2 m/s 589 mmHg 24%
03:00 +13°C° 0 mm 2 m/s 589 mmHg 26%
04:00 +13°C° 0 mm 2 m/s 588 mmHg 27%
05:00 +13°C° 0 mm 2 m/s 589 mmHg 26%
06:00 +13°C° 0 mm 2 m/s 589 mmHg 26%
07:00 +13°C° 0 mm 2 m/s 589 mmHg 26%
08:00 +15°C° 0 mm 2 m/s 590 mmHg 21%
09:00 +17°C° 0 mm 2 m/s 591 mmHg 16%
10:00 +18°C° 0 mm 3 m/s 591 mmHg 11%
11:00 +20°C° 0 mm 3 m/s 591 mmHg 9%
12:00 +21°C° 0 mm 4 m/s 592 mmHg 8%
13:00 +22°C° 0 mm 4 m/s 592 mmHg 6%
14:00 +22°C° 0 mm 5 m/s 591 mmHg 6%
15:00 +23°C° 0 mm 6 m/s 591 mmHg 7%
16:00 +23°C° 0 mm 6 m/s 591 mmHg 7%
17:00 +22°C° 0 mm 6 m/s 591 mmHg 9%
18:00 +21°C° 0 mm 6 m/s 590 mmHg 10%
19:00 +20°C° 0 mm 6 m/s 590 mmHg 12%
20:00 +19°C° 0 mm 5 m/s 590 mmHg 14%
21:00 +18°C° 0 mm 4 m/s 590 mmHg 16%
22:00 +17°C° 0 mm 3 m/s 590 mmHg 18%
23:00 +16°C° 0 mm 2 m/s 590 mmHg 19%

17 Abril, Sábado

Tempo Temperatura Precipitação Vento Pressão Humidade
00:00 +15°C° 0 mm 2 m/s 590 mmHg 19%
01:00 +15°C° 0 mm 2 m/s 589 mmHg 20%
02:00 +14°C° 0 mm 2 m/s 589 mmHg 20%
03:00 +13°C° 0 mm 2 m/s 589 mmHg 21%
04:00 +13°C° 0 mm 2 m/s 589 mmHg 21%
05:00 +13°C° 0 mm 2 m/s 590 mmHg 21%
06:00 +13°C° 0 mm 2 m/s 590 mmHg 20%
07:00 +13°C° 0 mm 2 m/s 591 mmHg 20%
08:00 +15°C° 0 mm 2 m/s 591 mmHg 18%
09:00 +16°C° 0 mm 2 m/s 592 mmHg 15%
10:00 +18°C° 0 mm 2 m/s 593 mmHg 13%
11:00 +19°C° 0 mm 2 m/s 593 mmHg 12%
12:00 +21°C° 0 mm 1 m/s 593 mmHg 11%
13:00 +22°C° 0 mm 1 m/s 593 mmHg 10%
14:00 +21°C° 0 mm 2 m/s 592 mmHg 9%
15:00 +23°C° 0 mm 2 m/s 592 mmHg 9%
16:00 +22°C° 0 mm 3 m/s 592 mmHg 8%
17:00 +22°C° 0 mm 3 m/s 592 mmHg 9%
18:00 +21°C° 0 mm 3 m/s 592 mmHg 9%
19:00 +20°C° 0 mm 4 m/s 592 mmHg 10%
20:00 +19°C° 0 mm 3 m/s 592 mmHg 11%
21:00 +19°C° 0 mm 2 m/s 592 mmHg 12%
22:00 +19°C° 0 mm 1 m/s 591 mmHg 12%
23:00 +18°C° 0 mm 1 m/s 591 mmHg 13%
Mostrar mais